Current Version              Previous Version:    01  02  03  04  05  06  07  08  09  10  11  12  13  14  15  16  17  18  19  20  21  22  23  24  25  26  27  28  29  30  
   31  32  33  34  35  36  37  38  39  40  41  42  43  44  45  46  47  48  49  50  51  52  53  54  55  56  57  58  59  60  

[Printable]
553
ASUS44 KLUB 281810
RWRTX
WEST TEXAS WEATHER ROUNDUP
NATIONAL WEATHER SERVICE LUBBOCK TX
1200 PM CST WED JAN 28 2015

NOTE: "FAIR" INDICATES FEW OR NO CLOUDS BELOW 12,000 FEET WITH NO
SIGNIFICANT WEATHER AND/OR OBSTRUCTIONS TO VISIBILITY.

TXZ004-006>008-010-012-014-016-OKZ002-281900-
TEXAS PANHANDLE/OKLAHOMA PANHANDLE

CITY           SKY/WX    TMP DP  RH WIND       PRES   REMARKS
AMARILLO       FAIR      63  33  32 NW16      30.06R
BORGER         FAIR      63  31  30 N10G18    30.03R
CANADIAN       FAIR      62  35  36 NW12      29.95F
DALHART        SUNNY     66  32  28 N7        30.06F
DUMAS          FAIR      61  34  36 N16       30.05F
GUYMON         FAIR      66  33  29 N23G30    29.99R
HEREFORD       FAIR      67  39  35 NW18      30.09S
PAMPA          FAIR      60  31  34 NW17      30.01S
PERRYTON         N/A     63  32  32 N18G24    29.97S
$$

TXZ026-029-035-045-048-281900-
SOUTHERN PANHANDLE/SOUTH PLAINS/ROLLING PLAINS

CITY           SKY/WX    TMP DP  RH WIND       PRES   REMARKS
CHILDRESS      FAIR      75  38  26 W21G29    30.00F
SEMINOLE       FAIR      69  42  38 W6        30.15F
LUBBOCK        PTSUNNY   70  38  31 W22G30    30.10F
PLAINVIEW      FAIR      64  37  36 W23G31    30.08S
SNYDER         FAIR     N/A N/A N/A SW10      30.12F
$$

TXZ052-054-060>062-072-078-127-140-154-169-281900-
PERMIAN BASIN/CONCHO VALLEY/BIG COUNTRY/EDWARDS PLATEAU

CITY           SKY/WX    TMP DP  RH WIND       PRES   REMARKS
ABILENE        FAIR      72  38  29 SW16      30.09F
BIG SPRING     FAIR      67  43  41 NW9       30.17R
BRADY          SUNNY     77  39  25 S13       30.13F
BROWNWOOD      FAIR      72  39  30 SW10G16   30.13F
JUNCTION       FAIR      75  39  27 S9        30.15F
MIDLAND        FAIR      72  46  39 W15       30.16R
ODESSA         FAIR      69  44  40 W15       30.17R
SAN ANGELO     FAIR      76  39  26 SW16      30.12F
SONORA         FAIR      73  37  27 S14       30.21S
SWEETWATER     FAIR      69  40  34 SW14      30.14F
WINK           FAIR      72  43  35 SW6       30.13F
$$

TXZ055-058-074-075-080-082-281900-
FAR WEST/SOUTHWEST MOUNTAINS/TRANS PECOS

CITY           SKY/WX    TMP DP  RH WIND       PRES   REMARKS
ALPINE         FAIR      72  46  39 SW12      30.29S
DRYDEN           N/A     73  43  33 S12       30.15F
EL PASO        MOSUNNY   61  41  47 CALM      30.23F
FORT STOCKTON  FAIR      73  46  38 S3        30.18F
GUADALUPE PASS SUNNY     59  41  51 SW16      30.27F
MARFA          FAIR      68  46  45 S7        30.27F
PECOS          FAIR      68  48  48 SE5       30.15F
PRESIDIO       FAIR      64  47  53 CALM      30.21F
$$

TXZ014-016-019-021>030-083-281900
TEXAS TECH WEST TEXAS MESONET/TEXAS PANHANDLE/NORTHERN SOUTH PLAINS

CITY           SKY/WX    TMP DP  RH WIND       PRES   REMARKS
ABERNATHY 5ENE   N/A     65  39  38 W20       30.10F
AMARILLO 9NNE    N/A     63  36  36 NW9       30.05F
AMARILLO 7SSE    N/A     65  32  29 NW12      30.07F
AMHERST 1NE      N/A     67  36  31 W26       30.11F
BOOTLEG 11WNW    N/A     62  38  40 W14       30.13S
CANADIAN 6E      N/A     63  35  35 NW10      29.93F
CAPROCK CYN SP   N/A     67  37  32 W14       30.03F
CHILDRESS 2NNE   N/A     75  37  24 W20       29.99F
CLARENDON 2WSW   N/A     69  34  27 W17       30.00F
CLAUDE 12SW      N/A     65  37  35 W14       30.04S
DIMMITT 2NE      N/A     65  37  34 W20       30.09S
FLOYDADA 2NNE    N/A     68  34  28 W21       30.07F
FRIONA 2NE       N/A     63  38  39 W21       30.11S
GOODLETT 3W      N/A     76  39  25 SW16      29.98F
HART 3N          N/A     65  39  38 W20       30.08F
HEREFORD 2NW     N/A     65  37  35 W15       30.09S
MCLEAN 1E        N/A     66  34  30 NW16      29.96F
MEMPHIS 1NE      N/A     71  38  29 SW12      29.98F
MULESHOE 2SSW    N/A     65  35  32 W24       30.11S
OLTON 6S         N/A     66  37  34 W23       30.09F
PALO DURO SP     N/A     66  37  33 NW13      30.06F
PAMPA 2E         N/A     61  33  34 NW16      30.01R
PLAINVIEW 1S     N/A     64  38  39 W20       30.07F
SILVERTON 7ESE   N/A     66  39  36 W21       30.04F
TULIA 2ENE       N/A     66  38  36 W20       30.06S
TURKEY 2WSW      N/A     72  37  28 W21       30.01F
UMBARGER 3NNE    N/A     64  40  42 W18       30.08F
$$

TXZ033>036-039>041-045>048-281900
TEXAS TECH WEST TEXAS MESONET/SOUTH PLAINS

CITY           SKY/WX    TMP DP  RH WIND       PRES   REMARKS
AIKEN 3WSW       N/A     67  39  36 W18       30.08F
ANDREWS 2NE      N/A     69  40  34 W12       30.16F
ANTON 6SSW       N/A     67  41  38 W18       30.11F
BROWNFIELD 2S    N/A     67  40  37 W10       30.12F
DENVR CTY 7WNW   N/A     69  36  29 W20       30.15S
GAIL 2ESE        N/A     67  44  42 W12       30.12S
LAMESA 2SE       N/A     70  42  36 W20       30.14F
LEVELLAND 4S     N/A     68  36  30 W20       30.12F
LUBBOCK 3WNW     N/A     70  37  29 W15       30.11F
MORTON 1ENE      N/A     66  36  32 W22       30.13F
ODONNELL 1N      N/A     67  39  34 W16       30.14F
PLAINS 3N        N/A     69  38  31 W20       30.14S
RALLS 1SE        N/A     67  40  37 W16       30.10F
REESE CENTER     N/A     67  37  33 W18       30.11F
SEAGRAVES 1SW    N/A     69  42  37 W12       30.14F
SEMINOLE 2NNE    N/A     70  39  33 W10       30.14F
SLATON 2NE       N/A     67  39  35 W16       30.11F
SNYDER 3E        N/A     65  44  45 S8        30.11F
SUNDOWN 8SW      N/A     70  37  30 W17       30.14S
TAHOKA 3NNE      N/A     69  41  35 W12       30.12F
WOLFFORTH 6SSW   N/A     69  42  37 SW14      30.12F
$$

TXZ031-032-036>038-042>044-281900-
TEXAS TECH WEST TEXAS MESONET/ROLLING PLAINS

CITY           SKY/WX    TMP DP  RH WIND       PRES   REMARKS
ASPERMONT 3NE    N/A     73  42  33 SW14      30.07F
FLUVANNA 3WNW    N/A     67  42  40 SW8       30.12S
GRAHAM 5SSW      N/A     67  40  36 W16       30.12S
GUTHRIE 10WSW    N/A     73  41  32 W15       30.05F
HASKELL 1NW      N/A     70  42  36 SW12      30.06S
JAYTON 1SSE      N/A     67  40  38 SW14      30.08S
KNOX CITY 3NW    N/A     69  41  35 SW14      30.05F
LK A HENRY 1NW   N/A     70  43  37 W8        30.09F
NORTHFIELD 1S    N/A     75  39  26 W15       30.00F
ODELL 4ENE       N/A     76  42  30 SW14      29.99F
PADUCAH 10SW     N/A     76  38  25 SW20      30.03F
POST 1NE         N/A     68  41  37 W14       30.11S
RRING SPRGS 3N   N/A     74  39  28 W16       30.05F
SEYMOUR 3NW      N/A     68  44  40 SW16      30.03F
SPUR 1W          N/A     70  39  31 W13       30.07F
WEINERT 2NNE     N/A     71  44  38 SW16      30.05F
WHITE RVR 6NE    N/A     71  40  33 W17       30.08F
$$

TXZ052-054-060>062-072-078-127-140-154-169-281900-
TEXAS TECH WEST TEXAS MESONET/PERMIAN BASIN/
CONCHO VALLEY/BIG COUNTRY/EDWARDS PLATEAU

CITY           SKY/WX    TMP DP  RH WIND       PRES   REMARKS
COYANOSA 2N      N/A     71  48  43 S5        30.15F
JUNCTION 1SSW    N/A     76  37  25 S14       30.15F
MERTZON 3NNE     N/A     75  39  27 S15       30.13F
SAN ANGELO 7NW   N/A     75  37  24 SW12      30.12F
STRLNG CT 4WSW   N/A     73  40  30 SW13      30.13F
ST LAWRNCE 5SW   N/A     72  44  36 SW12      30.14F
SWEETWATR 11SW   N/A     71  42  34 SW14      30.13F
WALL 1E          N/A     75  40  28 S17       30.12F
$$

TXZ055-058-074-075-080-082-281900-
TEXAS TECH WEST TEXAS MESONET/FAR WEST/SOUTHWEST MOUNTAINS/TRANS PECOS

CITY           SKY/WX    TMP DP  RH WIND       PRES   REMARKS
PRSMN GAP BBNP   N/A     68  46  45 S7        30.18F
GUADLPE MTN NP   N/A     58  40  50 S12       30.26S
$$